Weather in Aglona

Latvia     56°07′42″N   27°00′49″E
temp.,
°C
wind,
m/s
gust,
m/s
humid.,
%
clouds,
%
prec.,
mm/h
press.,
hPa
HPBL,
m
10 april, sat
sat1000:00+4ssw51367100 0.0 1014907
03:00+4ssw5147199 0.0 1014666
06:00+3s51376100 0.0 1013470
09:00+5ssw51272100 0.0 1014604
12:00+9ssw71265100 0.1 10131371
15:00+8wsw5117799 0.8 10141293
18:00+5wsw3890100 1.4 1017707
21:00+4ssw2492100 1.4 101979
11 april, sun
sun1100:00+3sw119289 0.0 102012
03:00+2sse009461 0.0 102210
06:00+1se119667 0.0 102310
09:00+5se2386100 0.0 1024282
12:00+7se2379100 0.0 1025596
15:00+8se3686100 0.0 1025494
18:00+9ese378279 0.0 1024542
21:00+9ese41186100 0.0 1024271
12 april, mon
mon1200:00+8se3109299 0.0 1025223
03:00+7sse3118683 0.0 1025224
06:00+6sse41181100 0.0 1025233
09:00+9sse41267100 0.0 1025420
12:00+13sse6104643 0.0 10241234
15:00+15sse6103933 0.0 10221616
18:00+14sse49452 0.0 10201503
21:00+9se2668100 0.0 1020113
13 april, tue
tue1300:00+8sse397496 0.0 1020226
03:00+6se278055 0.0 1020122
06:00+7sse2775100 0.0 1019176
09:00+8se2573100 0.0 1019164
12:00+12sse365585 0.0 1019444
15:00+16s244343 0.0 10181423
18:00+15sse2451100 0.0 1017264
21:00+11wsw1171100 0.0 101728
14 april, wed
wed1400:00+10nnw227952 0.0 101739
03:00+7nw119164 0.0 101621
06:00+7n119494 0.0 101528
09:00+10n1176100 0.0 1014243
12:00+14nnw1163100 0.0 1013735
15:00+15nnw2261100 0.1 10121164
18:00+11nne1489100 2.6 1012175
21:00+8n51093100 5.2 1013579